Weather History for Lambertville, MI

Change the Weather History Date:

Wednesday, February 19, 2014

  Actual Average (KTOL) Record (KTOL)
Temperature  
Mean Temperature 38 °F 29 °F  
Max Temperature 44 °F 37 °F 65 °F (1930)
Min Temperature 30 °F 21 °F -6 °F (1936)
Degree Days  
Heating Degree Days 27 36  
Month to date heating degree days 718  
Since 1 July heating degree days 4267  
Cooling Degree Days 0 0  
Month to date cooling degree days 0  
Year to date cooling degree days 0  
Moisture  
Dew Point 30 °F    
Average Humidity 71    
Maximum Humidity 93    
Minimum Humidity 53    
Precipitation  
Precipitation 0.00 in 0.08 in 0.44 in (1986)
Month to date precipitation 1.36  
Year to date precipitation 3.41  
Snow  
Snow 0.00 in 0.30 in - ()
Month to date snowfall 6.7  
Since 1 July snowfall 27.8  
Snow Depth -    
Sea Level Pressure  
Sea Level Pressure 29.83 in    
Wind  
Wind Speed 8 mph (WSW)    
Max Wind Speed 14 mph    
Max Gust Speed 22 mph    
Visibility 9 miles    
Events      
T = Trace of Precipitation, MM = Missing Value Source: NWS Daily Summary

Daily Weather History Graph

Daily Weather History Graph

Search for Another Location

Airport:

Trip Planner

Search our weather history database for the weather conditions in past years. The results will help you decide how hot, cold, wet, or windy it might be!

Date:

Astronomy

Feb. 19, 2014 Rise Set
Actual Time 7:24 AM EST 6:12 PM EST
Civil Twilight 6:56 AM EST 6:41 PM EST
Nautical Twilight 6:23 AM EST 7:13 PM EST
Astronomical Twilight 5:51 AM EST 7:45 PM EST
Moon 11:10 PM EST (2/19) 9:25 AM EST (2/19)
Length of Visible Light 11h 45m
Length of Day
10h 48m
Waning Gibbous, 80% of the Moon is Illuminated
Feb 19
Waning Gibbous
Feb 22
Last Quarter
Mar 1
New
Mar 8
First Quarter
Mar 16
Full

Hourly Weather History & Observations

Time (EST) Temp. Windchill Dew Point Humidity Pressure Visibility Wind Dir Wind Speed Gust Speed Precip Events Conditions
12:15 AM 42.8 °F 37.5 °F 28.4 °F 57% 29.69 in 10.0 mi SSW 9.2 mph 18.4 mph N/A   Clear
12:35 AM 42.8 °F 38.0 °F 28.4 °F 57% 29.68 in 10.0 mi SSW 8.1 mph - N/A   Clear
12:55 AM 42.8 °F 38.0 °F 28.4 °F 57% 29.68 in 10.0 mi WSW 8.1 mph 20.7 mph N/A   Clear
1:15 AM 42.8 °F 36.6 °F 28.4 °F 57% 29.67 in 10.0 mi SSW 11.5 mph 16.1 mph N/A   Clear
1:35 AM 42.8 °F 37.5 °F 28.4 °F 57% 29.65 in 10.0 mi SSW 9.2 mph - N/A   Clear
1:55 AM 44.6 °F 38.4 °F 28.4 °F 53% 29.65 in 10.0 mi SSW 12.7 mph 18.4 mph N/A   Scattered Clouds
2:15 AM 44.6 °F 38.4 °F 30.2 °F 57% 29.64 in 10.0 mi SSW 12.7 mph 18.4 mph N/A   Scattered Clouds
2:35 AM 44.6 °F 39.2 °F 30.2 °F 57% 29.63 in 10.0 mi SSW 10.4 mph 16.1 mph N/A   Mostly Cloudy
2:55 AM 44.6 °F 39.2 °F 30.2 °F 57% 29.63 in 10.0 mi SW 10.4 mph 19.6 mph N/A   Scattered Clouds
3:15 AM 44.6 °F 38.8 °F 30.2 °F 57% 29.62 in 10.0 mi SW 11.5 mph 18.4 mph N/A   Scattered Clouds
3:35 AM 44.6 °F 38.4 °F 30.2 °F 57% 29.61 in 10.0 mi SW 12.7 mph 18.4 mph N/A   Scattered Clouds
3:55 AM 44.6 °F 39.2 °F 30.2 °F 57% 29.61 in 10.0 mi SW 10.4 mph 17.3 mph N/A   Clear
4:15 AM 42.8 °F 38.0 °F 30.2 °F 61% 29.60 in 10.0 mi WSW 8.1 mph - N/A   Clear
4:35 AM 42.8 °F 37.5 °F 30.2 °F 61% 29.60 in 10.0 mi WSW 9.2 mph 16.1 mph N/A   Clear
4:55 AM 42.8 °F 37.5 °F 30.2 °F 61% 29.61 in 10.0 mi WSW 9.2 mph - N/A   Clear
5:15 AM 41.0 °F 35.2 °F 30.2 °F 65% 29.61 in 10.0 mi WSW 9.2 mph - N/A   Clear
5:35 AM 41.0 °F 36.4 °F 30.2 °F 65% 29.62 in 10.0 mi WSW 6.9 mph - N/A   Clear
5:55 AM 39.2 °F 34.2 °F 30.2 °F 70% 29.62 in 10.0 mi WSW 6.9 mph - N/A   Clear
6:15 AM 37.4 °F 32.8 °F 30.2 °F 75% 29.63 in 10.0 mi WSW 5.8 mph - N/A   Clear
6:35 AM 37.4 °F 33.8 °F 30.2 °F 75% 29.62 in 10.0 mi WSW 4.6 mph - N/A   Clear
6:55 AM 35.6 °F - 30.2 °F 81% 29.62 in 10.0 mi Calm Calm - N/A   Clear
7:15 AM 35.6 °F - 30.2 °F 81% 29.63 in 10.0 mi Calm Calm - N/A   Clear
7:35 AM 35.6 °F 31.7 °F 30.2 °F 81% 29.65 in 10.0 mi WSW 4.6 mph - N/A   Clear
7:55 AM 35.6 °F 30.7 °F 30.2 °F 81% 29.66 in 10.0 mi West 5.8 mph - N/A   Scattered Clouds
8:15 AM 37.4 °F 32.8 °F 30.2 °F 75% 29.67 in 10.0 mi West 5.8 mph - N/A   Scattered Clouds
8:35 AM 37.4 °F 32.1 °F 30.2 °F 75% 29.68 in 10.0 mi West 6.9 mph - N/A   Scattered Clouds
8:55 AM 37.4 °F 30.8 °F 30.2 °F 75% 29.69 in 10.0 mi West 9.2 mph - N/A   Mostly Cloudy
9:15 AM 37.4 °F 30.8 °F 30.2 °F 75% 29.71 in 10.0 mi West 9.2 mph - N/A   Scattered Clouds
9:35 AM 37.4 °F 29.3 °F 30.2 °F 75% 29.73 in 10.0 mi West 12.7 mph 17.3 mph N/A   Mostly Cloudy
9:55 AM 37.4 °F 32.1 °F 30.2 °F 75% 29.73 in 10.0 mi WNW 6.9 mph - N/A   Mostly Cloudy
10:15 AM 39.2 °F 34.2 °F 30.2 °F 70% 29.73 in 10.0 mi West 6.9 mph - N/A   Mostly Cloudy
10:35 AM 39.2 °F 33.0 °F 30.2 °F 70% 29.75 in 10.0 mi West 9.2 mph 16.1 mph N/A   Mostly Cloudy
10:55 AM 39.2 °F 33.0 °F 30.2 °F 70% 29.78 in 10.0 mi West 9.2 mph - N/A   Overcast
11:15 AM 41.0 °F 35.8 °F 30.2 °F 65% 29.79 in 10.0 mi WNW 8.1 mph - N/A   Overcast
11:35 AM 41.0 °F 33.9 °F 30.2 °F 65% 29.81 in 10.0 mi NW 12.7 mph 21.9 mph N/A   Overcast
11:55 AM 41.0 °F 36.4 °F 30.2 °F 65% 29.82 in 10.0 mi WNW 6.9 mph - N/A   Mostly Cloudy
12:15 PM 41.0 °F 35.2 °F 32.0 °F 70% 29.82 in 10.0 mi WNW 9.2 mph - N/A   Mostly Cloudy
12:35 PM 41.0 °F 35.8 °F 32.0 °F 70% 29.84 in 10.0 mi West 8.1 mph - N/A   Scattered Clouds
12:55 PM 41.0 °F 35.2 °F 32.0 °F 70% 29.85 in 10.0 mi West 9.2 mph - N/A   Overcast
1:15 PM 42.8 °F 37.5 °F 32.0 °F 66% 29.85 in 10.0 mi West 9.2 mph 16.1 mph N/A   Scattered Clouds
1:35 PM 41.0 °F 34.3 °F 32.0 °F 70% 29.86 in 10.0 mi West 11.5 mph - N/A   Clear
1:55 PM 42.8 °F 37.5 °F 32.0 °F 66% 29.87 in 10.0 mi West 9.2 mph - N/A   Clear
2:15 PM 42.8 °F 37.0 °F 32.0 °F 66% 29.88 in 10.0 mi West 10.4 mph - N/A   Clear
2:35 PM 42.8 °F 37.0 °F 32.0 °F 66% 29.90 in 7.0 mi West 10.4 mph - N/A   Clear
2:55 PM 42.8 °F 38.0 °F 32.0 °F 66% 29.91 in 10.0 mi West 8.1 mph - N/A   Clear
3:15 PM 41.0 °F 33.5 °F 32.0 °F 70% 29.92 in 10.0 mi West 13.8 mph - N/A   Clear
3:35 PM 42.8 °F 37.5 °F 32.0 °F 66% 29.93 in 10.0 mi West 9.2 mph - N/A   Clear
3:55 PM 42.8 °F 36.6 °F 32.0 °F 66% 29.94 in 10.0 mi West 11.5 mph 17.3 mph N/A   Clear
4:15 PM 42.8 °F 37.5 °F 32.0 °F 66% 29.95 in 10.0 mi West 9.2 mph - N/A   Clear
4:35 PM 42.8 °F 38.0 °F 32.0 °F 66% 29.97 in 10.0 mi WSW 8.1 mph - N/A   Clear
4:55 PM 41.0 °F 35.8 °F 32.0 °F 70% 29.98 in 10.0 mi WSW 8.1 mph 16.1 mph N/A   Clear
5:15 PM 41.0 °F 36.4 °F 32.0 °F 70% 29.99 in 10.0 mi WSW 6.9 mph - N/A   Clear
5:35 PM 41.0 °F 36.4 °F 32.0 °F 70% 30.00 in 10.0 mi WSW 6.9 mph - N/A   Clear
5:55 PM 41.0 °F 38.0 °F 32.0 °F 70% 30.01 in 10.0 mi SW 4.6 mph - N/A   Clear
6:15 PM 39.2 °F 37.0 °F 32.0 °F 75% 30.03 in 10.0 mi SW 3.5 mph - N/A   Clear
6:35 PM 39.2 °F 35.9 °F 32.0 °F 75% 30.04 in 10.0 mi SW 4.6 mph - N/A   Clear
6:55 PM 37.4 °F 32.8 °F 32.0 °F 81% 30.05 in 10.0 mi SW 5.8 mph - N/A   Clear
7:15 PM 37.4 °F 32.8 °F 32.0 °F 81% 30.07 in 10.0 mi SW 5.8 mph - N/A   Clear
7:35 PM 37.4 °F 32.8 °F 30.2 °F 75% 30.07 in 10.0 mi SW 5.8 mph - N/A   Clear
7:55 PM 37.4 °F 34.9 °F 30.2 °F 75% 30.07 in 10.0 mi SSW 3.5 mph - N/A   Clear
8:15 PM 33.8 °F - 30.2 °F 87% 30.06 in 10.0 mi Calm Calm - N/A   Clear
8:35 PM 32.0 °F 28.7 °F 28.4 °F 87% 30.05 in 7.0 mi South 3.5 mph - N/A   Clear
8:55 PM 33.8 °F - 30.2 °F 87% 30.05 in 7.0 mi Calm Calm - N/A   Clear
9:15 PM 33.8 °F 29.6 °F 30.2 °F 87% 30.06 in 7.0 mi South 4.6 mph - N/A   Clear
9:35 PM 33.8 °F 30.8 °F 30.2 °F 87% 30.06 in 7.0 mi South 3.5 mph - N/A   Clear
9:55 PM 32.0 °F - 30.2 °F 93% 30.05 in 5.0 mi Calm Calm - N/A   Clear
10:15 PM 32.0 °F 28.7 °F 28.4 °F 87% 30.05 in 5.0 mi South 3.5 mph - N/A   Clear
10:35 PM 32.0 °F - 30.2 °F 93% 30.05 in 5.0 mi Calm Calm - N/A   Clear
10:55 PM 32.0 °F - 28.4 °F 87% 30.04 in 4.0 mi Calm Calm - N/A   Clear
11:15 PM 32.0 °F - 28.4 °F 87% 30.04 in 4.0 mi Calm Calm - N/A   Clear
11:35 PM 32.0 °F 28.7 °F 28.4 °F 87% 30.04 in 4.0 mi South 3.5 mph - N/A   Clear
11:55 PM 30.2 °F - 28.4 °F 93% 30.05 in 3.0 mi Calm Calm - N/A   Clear